Le nostre stazioni meteo in Italia

Pubblicità
Il mio iltempo24.it
Bari, Italia (16271): Temperatura & dewpoint: 09.11.2018 08:00:00 - 15.11.2018 08:00:00 (CET)Bari, Italia (16271): velocità del vento: 09.11.2018 08:00:00 - 15.11.2018 08:00:00 (CET)Bari, Italia (16271): direzione del vento: 09.11.2018 08:00:00 - 15.11.2018 08:00:00 (CET)Bari, Italia (16271): reduced air pressure: 09.11.2018 08:00:00 - 15.11.2018 08:00:00 (CET)Bari, Italia (16271): precipitazioni: 09.11.2018 08:00:00 - 15.11.2018 08:00:00 (CET)
Data & Tempo tt [°C] td [°C] ff [km/h] ff [kn] dd ppp [hPa] rr [mm]
15.11.2018 08:00:00 14,3 11,2 15 8 O 1023,9 -
15.11.2018 07:00:00 14,2 11,1 11 6 O 1023,5 0,0
15.11.2018 06:00:00 14,3 11,2 16 9 O 1023,1 -
15.11.2018 05:00:00 14,3 11,2 16 9 O 1023,0 -
15.11.2018 04:00:00 14,0 10,9 13 7 O 1023,1 -
15.11.2018 03:00:00 14,2 11,1 16 9 O 1023,1 -
15.11.2018 02:00:00 14,4 11,3 15 8 O 1023,4 -
15.11.2018 01:00:00 14,5 11,4 16 9 O 1023,6 0,0
15.11.2018 00:00:00 14,5 11,4 15 8 O 1024,1 -
14.11.2018 23:00:00 14,6 11,5 16 9 O 1024,5 -
14.11.2018 22:00:00 15,0 11,7 15 8 O 1024,5 -
14.11.2018 21:00:00 15,4 12,8 11 6 O 1024,7 -
14.11.2018 20:00:00 16,1 13,3 13 7 O 1024,7 -
14.11.2018 19:00:00 16,9 13,3 11 6 O 1024,6 0,0
14.11.2018 18:00:00 17,7 14,1 16 9 NO 1024,2 -
14.11.2018 17:00:00 17,9 14,1 18 10 NO 1024,2 -
14.11.2018 16:00:00 18,4 14,0 16 9 NO 1024,4 -
14.11.2018 15:00:00 18,8 15,8 22 12 NO 1024,4 -
14.11.2018 14:00:00 18,8 14,4 24 13 NO 1024,9 -
14.11.2018 13:00:00 18,8 13,6 26 14 NO 1025,5 0,0
14.11.2018 12:00:00 18,6 13,4 18 10 NO 1026,1 -
14.11.2018 11:00:00 18,1 12,9 22 12 NO 1026,6 -
14.11.2018 10:00:00 17,3 12,9 13 7 O 1026,6 -
14.11.2018 09:00:00 15,3 12,0 16 9 O 1026,6 -
14.11.2018 08:00:00 13,8 10,7 16 9 O 1026,9 -
14.11.2018 07:00:00 13,2 10,3 16 9 S 1026,6 0,0
14.11.2018 06:00:00 13,2 10,3 16 9 O 1026,5 -
14.11.2018 05:00:00 13,1 10,2 16 9 O 1026,5 -
14.11.2018 04:00:00 12,9 10,1 15 8 O 1026,8 -
14.11.2018 03:00:00 12,6 9,8 15 8 O 1026,8 -
14.11.2018 02:00:00 13,2 10,3 11 6 O 1027,1 -
14.11.2018 01:00:00 12,5 10,4 11 6 O 1027,0 0,0
14.11.2018 00:00:00 13,0 10,1 13 7 S 1027,2 -
13.11.2018 23:00:00 13,5 10,5 13 7 S 1027,6 -
13.11.2018 22:00:00 13,4 10,5 9 5 O 1027,8 -
13.11.2018 21:00:00 13,8 10,7 9 5 O 1027,9 -
13.11.2018 20:00:00 14,9 11,6 8 4 O 1027,7 -
13.11.2018 19:00:00 15,8 12,5 5 3 NO 1027,8 0,0
13.11.2018 18:00:00 16,3 12,8 4 2 NO 1027,9 -
13.11.2018 17:00:00 16,6 12,9 4 2 NO 1027,7 -
13.11.2018 16:00:00 17,5 13,5 4 2 NO 1027,4 -
13.11.2018 15:00:00 17,7 13,7 5 3 NO 1027,6 -
13.11.2018 14:00:00 17,9 13,7 11 6 NO 1027,8 -
13.11.2018 13:00:00 17,7 13,1 11 6 NO 1028,1 0,0
13.11.2018 12:00:00 17,5 13,1 8 4 NO 1028,4 -
13.11.2018 11:00:00 17,1 13,5 2 1 O 1028,7 -
13.11.2018 10:00:00 15,0 13,0 5 3 O 1029,1 -
13.11.2018 09:00:00 14,5 13,0 5 3 O 1029,3 -
13.11.2018 08:00:00 14,1 12,8 4 2 O 1029,1 -
13.11.2018 07:00:00 13,4 12,3 5 3 O 1028,5 -
13.11.2018 06:00:00 13,4 12,3 5 3 O 1028,1 -
13.11.2018 05:00:00 12,5 11,1 9 5 O 1028,1 -
13.11.2018 04:00:00 12,8 10,0 8 4 O 1028,1 -
13.11.2018 03:00:00 13,3 10,4 5 3 S 1028,1 -
13.11.2018 02:00:00 13,4 11,8 4 2 S 1028,1 -
13.11.2018 01:00:00 13,6 12,1 4 2 S 1027,8 -
13.11.2018 00:00:00 14,0 12,5 4 2 S 1027,7 -
12.11.2018 23:00:00 15,1 13,7 5 3 S 1027,7 -
12.11.2018 22:00:00 15,7 14,0 8 4 S 1027,7 -
12.11.2018 21:00:00 16,3 14,2 5 3 O 1027,7 -
12.11.2018 20:00:00 16,5 13,0 5 3 NO 1027,5 -
12.11.2018 19:00:00 17,0 13,4 2 1 NO 1027,6 0,0
12.11.2018 18:00:00 17,4 13,6 0 0 N 1027,3 -
12.11.2018 17:00:00 17,9 14,9 4 2 NO 1027,0 -
12.11.2018 16:00:00 18,9 14,3 5 3 NO 1026,8 -
12.11.2018 15:00:00 19,4 14,6 9 5 NO 1026,8 -
12.11.2018 14:00:00 19,7 14,2 8 4 NO 1026,9 -
12.11.2018 13:00:00 19,6 14,3 8 4 NO 1027,2 0,0
12.11.2018 12:00:00 19,1 16,1 5 3 NO 1027,7 -
12.11.2018 11:00:00 17,8 14,2 2 1 S 1028,0 -
12.11.2018 10:00:00 15,4 13,9 4 2 S 1027,9 -
12.11.2018 09:00:00 14,3 12,8 5 3 S 1027,8 -
12.11.2018 08:00:00 13,8 12,3 5 3 S 1027,5 -
12.11.2018 07:00:00 14,2 12,7 5 3 S 1026,9 0,0
12.11.2018 06:00:00 14,2 12,7 4 2 S 1026,4 -
12.11.2018 05:00:00 14,5 13,2 4 2 O 1026,1 -
12.11.2018 04:00:00 14,3 13,0 4 2 O 1025,8 -
12.11.2018 03:00:00 14,0 12,4 5 3 O 1025,5 -
12.11.2018 02:00:00 14,0 10,9 8 4 S 1025,3 -
12.11.2018 01:00:00 14,2 11,1 4 2 O 1025,0 0,0
12.11.2018 00:00:00 15,1 11,8 9 5 S 1024,9 -
11.11.2018 23:00:00 15,2 11,9 11 6 S 1024,6 -
11.11.2018 22:00:00 15,5 12,2 11 6 S 1024,6 -
11.11.2018 21:00:00 16,1 12,8 11 6 S 1024,4 -
11.11.2018 20:00:00 16,4 12,9 11 6 S 1023,9 -
11.11.2018 19:00:00 17,1 13,5 8 4 S 1023,6 0,0
11.11.2018 18:00:00 17,9 14,1 9 5 O 1023,1 -
11.11.2018 17:00:00 18,4 14,6 9 5 O 1022,6 -
11.11.2018 16:00:00 19,0 15,8 9 5 O 1022,4 -
11.11.2018 15:00:00 20,2 15,1 8 4 NO 1022,1 -
11.11.2018 14:00:00 19,9 14,8 8 4 NO 1022,0 -
11.11.2018 13:00:00 19,9 14,4 9 5 NO 1021,9 0,0
11.11.2018 12:00:00 19,7 16,5 5 3 NO 1021,9 -
11.11.2018 11:00:00 18,1 15,1 8 4 NO 1022,1 -
11.11.2018 10:00:00 17,9 14,3 2 1 S 1021,7 -
11.11.2018 09:00:00 16,1 14,2 0 0 N 1021,3 -
11.11.2018 08:00:00 13,1 10,2 8 4 S 1021,0 -
11.11.2018 07:00:00 12,4 9,6 5 3 S 1020,2 0,0
11.11.2018 06:00:00 12,6 9,8 11 6 S 1019,5 -
11.11.2018 05:00:00 12,8 10,0 11 6 S 1019,4 -
11.11.2018 04:00:00 13,0 10,1 11 6 S 1019,2 -
11.11.2018 03:00:00 13,4 10,4 11 6 S 1019,0 -
11.11.2018 02:00:00 13,3 10,3 11 6 S 1019,0 -
11.11.2018 01:00:00 14,1 11,0 8 4 S 1018,8 0,0
11.11.2018 00:00:00 14,6 11,5 9 5 S 1018,8 -
10.11.2018 23:00:00 14,7 11,6 11 6 S 1018,6 -
10.11.2018 22:00:00 15,3 12,0 9 5 S 1018,5 -
10.11.2018 21:00:00 15,7 12,4 9 5 S 1018,0 -
10.11.2018 20:00:00 16,0 12,7 9 5 S 1017,7 -
10.11.2018 19:00:00 16,9 13,3 9 5 S 1017,5 0,0
10.11.2018 18:00:00 17,4 13,8 8 4 S 1017,1 -
10.11.2018 17:00:00 17,8 14,0 11 6 O 1016,8 -
10.11.2018 16:00:00 18,2 14,4 18 10 O 1016,6 -
10.11.2018 15:00:00 18,7 14,9 18 10 O 1016,4 -
10.11.2018 14:00:00 19,4 16,2 16 9 O 1016,8 -
10.11.2018 13:00:00 19,2 16,0 13 7 NO 1017,2 0,0
10.11.2018 12:00:00 19,1 14,1 9 5 NO 1017,6 -
10.11.2018 11:00:00 19,3 14,3 9 5 S 1018,2 -
10.11.2018 10:00:00 18,7 15,7 0 0 N 1018,4 -
10.11.2018 09:00:00 15,4 12,1 8 4 S 1018,3 -
10.11.2018 08:00:00 13,0 10,1 8 4 S 1018,2 -
10.11.2018 07:00:00 12,4 9,6 9 5 S 1018,0 0,0
10.11.2018 06:00:00 13,1 10,2 5 3 S 1018,2 -
10.11.2018 05:00:00 12,6 9,8 8 4 S 1018,2 -
10.11.2018 04:00:00 11,9 9,3 13 7 S 1018,1 -
10.11.2018 03:00:00 12,8 10,7 4 2 S 1018,5 -
10.11.2018 02:00:00 13,4 10,0 4 2 S 1018,6 -
10.11.2018 01:00:00 13,5 11,2 4 2 S 1018,7 0,0
10.11.2018 00:00:00 14,0 11,7 4 2 S 1019,0 -
09.11.2018 23:00:00 14,2 11,9 5 3 S 1019,1 -
09.11.2018 22:00:00 14,5 11,4 4 2 S 1019,4 -
09.11.2018 21:00:00 15,2 11,9 8 4 S 1019,3 -
09.11.2018 20:00:00 15,7 12,4 8 4 S 1019,2 -
09.11.2018 19:00:00 16,1 12,8 8 4 S 1019,3 0,0
09.11.2018 18:00:00 17,2 14,2 5 3 O 1019,0 -
09.11.2018 17:00:00 17,6 12,8 8 4 O 1018,8 -
09.11.2018 16:00:00 19,0 13,8 9 5 NO 1018,7 -
09.11.2018 15:00:00 19,6 13,7 9 5 NO 1019,1 -
09.11.2018 14:00:00 20,1 12,8 8 4 NO 1019,4 -
09.11.2018 13:00:00 20,6 12,8 5 3 NO 1019,7 0,0
09.11.2018 12:00:00 19,8 12,5 5 3 NO 1020,3 -
09.11.2018 11:00:00 19,0 11,5 5 3 NO 1020,9 -
09.11.2018 10:00:00 18,1 11,4 11 6 NO 1021,2 -
09.11.2018 09:00:00 16,7 10,9 5 3 S 1021,2 -
09.11.2018 08:00:00 14,0 9,4 11 6 O 1021,1 -

tt = Temperatura
td = dewpoint
ff = velocità del vento
dd = direzione del vento
ppp = reduced air pressure
rr = precipitazioni

Stazioni seguenti

WeatherPro
AMSI
MeteoEarth